Location: Quebec
(46.8000°N, 71.2500°W)
Time: 23:32:29
(UTC-04:00)

Vanguard 1 - All Passes

Search period start: 19 October 2017 00:00
Search period end: 29 October 2017 00:00
Orbit: 650 x 3834 km, 34.3° (Epoch: 18 October)

Date Brightness Start Highest point End Pass type
(mag) Time Alt. Az. Time Alt. Az. Time Alt. Az.
19 Oct - 00:51:04 10° SSW 01:03:40 41° SSE 01:22:53 10° E visible
19 Oct - 03:10:17 10° WSW 03:27:01 57° S 03:49:35 10° ESE visible
19 Oct - 05:32:25 10° W 05:52:06 51° SSW 06:13:07 10° SE visible
19 Oct - 07:58:03 10° W 08:15:38 29° SW 08:31:34 10° S daylight
19 Oct - 22:55:52 10° S 23:03:59 20° SE 23:15:12 10° E visible
20 Oct - 01:11:20 10° SW 01:24:22 46° SSE 01:44:32 10° E visible
20 Oct - 03:31:10 10° WSW 03:48:12 57° S 04:10:47 10° ESE visible
20 Oct - 05:53:44 10° W 06:13:07 46° SSW 06:33:32 10° SE visible
20 Oct - 08:20:36 10° W 08:36:02 23° SW 08:50:14 10° S daylight
20 Oct - 23:15:00 10° S 23:24:09 26° SE 23:37:44 10° E visible
21 Oct - 01:31:49 10° SW 01:45:13 50° SSE 02:06:05 10° E visible
21 Oct - 03:52:09 10° WSW 04:09:23 56° S 04:31:51 10° ESE visible
21 Oct - 06:15:10 10° W 06:34:03 41° SSW 06:53:40 10° SSE visible
21 Oct - 08:44:09 10° W 08:56:20 17° SW 09:07:47 10° SSW daylight
21 Oct - 23:34:39 10° SSW 23:44:29 32° SE 23:59:49 10° E visible
22 Oct - 01:52:27 10° WSW 02:06:12 53° SSE 02:27:33 10° E visible
22 Oct - 04:13:11 10° W 04:30:34 53° SSW 04:52:45 10° SE visible
22 Oct - 06:36:48 10° W 06:54:50 35° SW 07:13:24 10° SSE visible
22 Oct - 09:10:30 10° WSW 09:16:33 12° SW 09:22:25 10° SW daylight
22 Oct - 21:42:59 10° SE 21:46:01 11° SE 21:49:28 10° ESE night (unlit)
22 Oct - 23:54:40 10° SSW 00:04:58 38° SSE 00:21:39 10° E visible
23 Oct - 02:13:11 10° WSW 02:27:15 55° S 02:48:55 10° ESE visible
23 Oct - 04:34:20 10° W 04:51:43 49° SSW 05:13:27 10° SE visible
23 Oct - 06:58:46 10° W 07:15:31 29° SW 07:32:40 10° S daylight
23 Oct - 22:00:11 10° SSE 22:06:03 17° SE 22:13:52 10° E night (unlit)
24 Oct - 00:14:55 10° SW 00:25:35 43° SSE 00:43:19 10° E visible
24 Oct - 02:34:01 10° WSW 02:48:22 55° S 03:10:10 10° ESE visible
24 Oct - 04:55:33 10° W 05:12:47 45° SSW 05:33:52 10° SE visible
24 Oct - 07:21:14 10° W 07:36:05 23° SW 07:51:13 10° S daylight
24 Oct - 22:19:07 10° S 22:26:12 22° SE 22:36:34 10° E night (unlit)
25 Oct - 00:35:22 10° SW 00:46:21 47° SSE 01:04:53 10° E visible
25 Oct - 02:54:55 10° WSW 03:09:31 53° S 03:31:18 10° ESE visible
25 Oct - 05:16:55 10° W 05:33:46 39° SSW 05:53:59 10° SSE visible
25 Oct - 07:44:43 10° W 07:56:33 17° SW 08:08:36 10° SSW daylight
25 Oct - 22:38:43 10° SSW 22:46:30 28° SE 22:58:41 10° E visible
26 Oct - 00:55:57 10° WSW 01:07:15 50° SSE 01:26:22 10° E visible
26 Oct - 03:15:54 10° W 03:30:40 51° SSW 03:52:14 10° SE visible
26 Oct - 05:38:29 10° W 05:54:40 34° SSW 06:13:40 10° SSE visible
26 Oct - 08:11:06 10° WSW 08:16:58 11° SW 08:22:53 10° SW daylight
26 Oct - 22:58:41 10° SSW 23:06:56 33° SSE 23:20:30 10° E visible
27 Oct - 01:16:39 10° WSW 01:28:13 52° S 01:47:46 10° ESE visible
27 Oct - 03:36:57 10° W 03:51:47 47° SSW 04:12:57 10° SE visible
27 Oct - 06:00:23 10° W 06:15:29 28° SW 06:32:50 10° S visible
27 Oct - 21:05:13 10° SSE 21:08:38 13° SE 21:12:45 10° ESE night (unlit)
27 Oct - 23:18:55 10° SW 23:27:31 39° SSE 23:42:10 10° E visible
28 Oct - 01:37:26 10° WSW 01:49:16 52° S 02:09:03 10° ESE visible
28 Oct - 03:58:08 10° W 04:12:53 42° SSW 04:33:22 10° SE visible
28 Oct - 06:22:50 10° W 06:36:13 22° SW 06:51:13 10° S visible
28 Oct - 21:23:40 10° S 21:28:48 18° SE 21:35:52 10° E night (unlit)
